Back to catalog

IRNSS 1E

AliveNavigationGEO
NORAD 41241·PAYLOAD·🇮🇳 India

Launched Jan 20, 2016 from Satish Dhawan Space Centre

Loading…

TLE

FreshSource: CelesTrak SupGP

Epoch: Sep 14, 2026, 23:59 UTC

1 41241C 16003A   26257.99979167 -.00000215  00000+0  00000+0 0  2575
2 41241  33.4302  58.4515 0021494 180.6845 226.5999  1.00275866    17

Track IRNSS 1E in real time with AllMySat

Download on the App Store